Location: Peterborough
(44.3091°N, 78.3197°W)
Time: 10:56:09
(UTC-04:00)

A-11 Canister half - Pass Details

Date: 12 September 2024
Orbit: 1515 x 1684 km, 47.2° (Epoch: 02 October)

Event Time Altitude Azimuth Distance (km) Brightness Sun altitude
Rises 21:27:57 0° 247° (WSW) 4,708 12.1 -21.2°
Reaches altitude 10° 21:31:01 10° 247° (WSW) 3,709 11.5 -21.7°
Maximum altitude 21:40:22 89° 159° (SSE) 1,522 8.9 -23.1°
Enters shadow 21:47:26 20° 71° (ENE) 2,977 10.1 -24.2°
